This demonstration page uses our WeatherBlox Daily Observations layout. Learn more.

38.88101, -77.10428

Hourly Observations for March 18, 2017

Temp ( °F °C ) Dew Point ( °F °C ) Humidity (%) Winds ( mph kmh ) Pressure ( in mb ) Visibility ( mi km ) Precip ( " mm )
12:52 am 00:52 Cloudy with Light Rain 40 4.4 36 2.2 86 86 S 13 20 30.21 1023 10 16.09344 0.001 0.001
1:52 am 01:52 Cloudy 40 4.4 36 2.2 86 86 SSE 7 11 30.15 1021 10 16.09344 0.01 0.254
2:52 am 02:52 Cloudy 40 4.4 36 2.2 86 86 ESE 5 7 30.12 1020 10 16.09344 0 0
3:52 am 03:52 Cloudy 41 5 35 1.7 79 79 Calm 30.12 1020 10 16.09344 0 0
4:52 am 04:52 Cloudy with Light Rain 41 5 36 2.2 82 82 ESE 3 6 30.09 1019 10 16.09344 0.01 0.254
5:52 am 05:52 Cloudy 41 5 37 2.8 86 86 ENE 3 6 30.09 1019 10 16.09344 0.01 0.254
6:52 am 06:52 Cloudy 41 5 38 3.3 89 89 NE 3 6 30.09 1019 10 16.09344 0 0
7:52 am 07:52 Cloudy 42 5.6 38 3.3 85 85 NE 5 7 30.09 1019 10 16.09344 0 0
8:14 am 08:14 Cloudy 43 6 37 3 81 81 NE 5 7 30.09 1019 10 16.09344 0 0
8:52 am 08:52 Cloudy 42 5.6 39 3.9 89 89 NNE 3 6 30.09 1019 10 16.09344 0 0
9:52 am 09:52 Cloudy 43 6.1 39 3.9 86 86 N 3 6 30.09 1019 10 16.09344 0 0
10:52 am 10:52 Cloudy 46 7.8 40 4.4 79 79 ENE 5 7 30.06 1018 10 16.09344 0 0
11:52 am 11:52 Partly Cloudy 50 10 37 2.8 61 61 NW 3 6 30.03 1017 10 16.09344 0 0
12:52 pm 12:52 Partly Cloudy 53 11.7 39 3.9 59 59 Calm 30.06 1018 10 16.09344 0 0
1:52 pm 13:52 Partly Cloudy 56 13.3 40 4.4 55 55 Calm 30 1016 10 16.09344 0 0
2:52 pm 14:52 Partly Cloudy 58 14.4 41 5 53 53 NNE 6 9 29.97 1015 10 16.09344 0 0
3:52 pm 15:52 Mostly Cloudy 59 15 43 6.1 56 56 NNE 13 20 29.94 1014 10 16.09344 0 0
4:52 pm 16:52 Partly Cloudy 54 12.2 40 4.4 59 59 ENE 15 24 29.94 1014 10 16.09344 0 0
5:52 pm 17:52 Partly Cloudy 53 11.7 40 4.4 61 61 ENE 14 22 29.94 1014 10 16.09344 0 0
6:41 pm 18:41 Mostly Cloudy 51 10.6 39 3.9 64 64 ENE 16 26 29.97 1015 10 16.09344 0 0
6:52 pm 18:52 Mostly Cloudy 51 10.6 40 4.4 66 66 NE 12 19 29.97 1015 10 16.09344 0 0
7:14 pm 19:14 Cloudy with Rain 50 10 39 4 67 67 E 16 26 30 1016 4 6.437376 0 0
7:52 pm 19:52 Cloudy with Light Rain 49 9.4 42 5.6 77 77 NE 12 19 30 1016 10 16.09344 0.02 0.508
8:38 pm 20:38 Cloudy with Light Rain 46 8 43 6 87 87 ENE 16 26 30.06 1018 10 16.09344 0 0
8:52 pm 20:52 Cloudy 47 8.3 43 6.1 86 86 NE 15 24 30.03 1017 7 11.265408 0.01 0.254
9:08 pm 21:08 Cloudy with Light Rain 46 8 43 6 87 87 NE 17 28 30.06 1018 4 6.437376 0 0
9:27 pm 21:27 Cloudy with Light Rain 45 7.2 43 6.1 93 93 NE 15 24 30.06 1018 5 8.04672 0.01 0.254
9:52 pm 21:52 Cloudy with Rain 45 7.2 43 6.1 93 93 NE 13 20 30.06 1018 4 6.437376 0.05 1.27
10:18 pm 22:18 Cloudy with Rain 45 7 43 6 93 93 NE 12 19 30.09 1019 5 8.04672 0 0
10:41 pm 22:41 Cloudy with Rain 44 6.7 43 6.1 96 96 NNE 13 20 30.09 1019 5 8.04672 0.11 2.794
10:52 pm 22:52 Cloudy with Light Rain 44 6.7 42 5.6 93 93 NNE 10 17 30.09 1019 4 6.437376 0.13 3.302
11:26 pm 23:26 Cloudy with Rain 44 6.7 42 5.6 93 93 NNE 10 17 30.09 1019 6 9.656064 0.06 1.524
11:45 pm 23:45 Cloudy with Light Rain 44 6.7 42 5.6 93 93 NNE 13 20 30.09 1019 9 14.484096 0.09 2.286
11:52 pm 23:52 Cloudy with Light Rain 44 6.7 42 5.6 93 93 NNE 12 19 30.06 1018 9 14.484096 0.09 2.286

Powered by AerisWeather